• Join FlightAware (Why Join?)
  • Login
  • US Flag 
07:48PM EDT


 

Airport Tracker/Info


-or-


 

Live Flight TrackerFlight Track Log ✈ OPT445 ✈ 15-Sep-2013 ✈ KAGC - KCGF

Flight Track Log - Related Links

Times and Time Zones

All times are in EDT time to prevent confusion due to time zone crossing. See the OPT445 flight status page for this flight to view local times or setup timezone preferences in your user account.

Time Position Orientation Groundspeed Altitude Reporting Facility
EDT Latitude Longitude Course Direction KTS MPH feet Rate Location/Type
02:50PM 40.3789 -80.0725 288° West 201 231 6,900  Level Cleveland Center
02:51PM 40.3994 -80.1531 289° West 226 260 9,100 1,500 Climbing Cleveland Center
02:52PM 40.4236 -80.2383 290° West 244 281 10,000 420 Climbing Cleveland Center
02:53PM 40.4472 -80.3267 289° West 256 295 10,000  Level Cleveland Center
02:54PM 40.4705 -80.4147 288° West  Level FlightAware Approximate
02:54PM 40.4711 -80.4139 290° West 254 292 10,000  Level Cleveland Center
02:55PM 40.4911 -80.4977 288° West  Level FlightAware Approximate
02:55PM 40.4944 -80.4986 290° West 249 287 10,000  Level Cleveland Center
02:56PM 40.5278 -80.5953 294° West 248 285 10,000  Level Cleveland Center
02:57PM 40.5894 -80.6467 328° Northwest 260 299 10,000  Level Cleveland Center
02:58PM 40.6497 -80.6992 327° Northwest 259 298 10,000  Level Cleveland Center
02:59PM 40.7094 -80.7497 327° Northwest 257 296 10,000  Level Cleveland Center
03:00PM 40.7697 -80.8008 327° Northwest 256 295 10,000 -60 Level Cleveland Center
03:01PM 40.8300 -80.8531 327° Northwest 258 297 9,900 -540 Descending Cleveland Center
03:02PM 40.9039 -80.9153 328° Northwest 263 303 8,900 -1,260 Descending Cleveland Center
03:03PM 40.9650 -80.9672 327° Northwest 262 302 7,400 -1,500 Descending Cleveland Center
03:04PM 41.0233 -81.0169 327° Northwest 251 289 5,800 -1,620 Descending Cleveland Center
03:05PM 41.0875 -81.0736 326° Northwest 251 289 4,100 -900 Descending Cleveland Center
03:06PM 41.1431 -81.1219 327° Northwest 242 278 4,000 -120 Descending Cleveland Center
03:07PM 41.1667 -81.1442 325° Northwest 213 245 4,000  Level Cleveland Center
03:07PM 41.1928 -81.1636 331° Northwest 218 251 4,000  Level Cleveland Center
03:08PM 41.2217 -81.1889 327° Northwest 212 244 4,000  Level Cleveland Center
03:08PM 41.2425 -81.2039 332° Northwest 210 242 4,000  Level Cleveland Center
03:09PM 41.2686 -81.2292 324° Northwest 203 234 4,000  Level Cleveland Center
03:09PM 41.2897 -81.2469 328° Northwest 207 238 4,000  Level Cleveland Center
03:10PM 41.3175 -81.2703 328° Northwest 205 236 4,000  Level Cleveland Center
03:10PM 41.3375 -81.2875 327° Northwest 203 234 4,000  Level Cleveland Center
03:11PM 41.3642 -81.3108 327° Northwest 202 232 4,000 -300 Level Cleveland Center
03:11PM 41.3933 -81.3311 332° Northwest 200 230 3,700 -420 Descending Cleveland Center
03:12PM 41.4167 -81.3356 352° North 218 251 3,600 -420 Descending Cleveland Center
03:12PM 41.4519 -81.3464 347° North 211 243 3,300 -540 Descending Cleveland Center
03:13PM 41.4756 -81.3586 339° North 207 238 3,100 -420 Descending Cleveland Center
03:13PM 41.5042 -81.3756 336° Northwest 206 237 2,900 -240 Descending Cleveland Center
03:14PM 41.5269 -81.3947 328° Northwest 211 243 2,900 -240 Level Cleveland Center
03:15PM 41.5536 -81.4181 327° Northwest 207 238 2,700 -600 Descending Cleveland Center
03:15PM 41.5753 -81.4386 325° Northwest 212 244 2,300 -1,260 Descending Cleveland Center
03:16PM 41.5797 -81.4650 283° West 192 221 1,400 -720 Descending Cleveland Center
03:17PM 41.5492 -81.4975 219° Southwest 164 189 1,100 -300 Descending Cleveland Center